This is the latest recevied weather packets stored in our database for station/object WD5U-1. If no packets are shown the sender has not sent any weather packets the latest 10 day(s).
| Time | Temp. | Humidity | Pressure | Rain* | Wind** | Luminosity | Snow |
|---|---|---|---|---|---|---|---|
| 1777802782 | 12.22° C | 77% | 1021.1 hPa | 0 mm | - | - | - |
| 1777802539 | 12.22° C | 77% | 1021 hPa | 0 mm | - | - | - |
| 1777801944 | 12.78° C | 76% | 1021.1 hPa | 0 mm | - | - | - |
| 1777801345 | 12.78° C | 76% | 1021.1 hPa | 0 mm | - | - | - |
| 1777801243 | 12.78° C | 76% | 1020.9 hPa | 0 mm | - | - | - |
| 1777800859 | 12.78° C | 76% | 1021 hPa | 0 mm | - | - | - |
| 1777800525 | 12.78° C | 76% | 1021 hPa | 0 mm | - | - | - |
| 1777800022 | 12.78° C | 76% | 1021 hPa | 0 mm | - | - | - |
| 1777799666 | 13.33° C | 75% | 1021 hPa | 0 mm | - | - | - |
| 1777798956 | 13.33° C | 75% | 1021.1 hPa | 0 mm | - | - | - |
| 1777798723 | 13.33° C | 74% | 1021 hPa | 0 mm | - | - | - |
| 1777798460 | 13.33° C | 75% | 1021 hPa | 0 mm | - | - | - |
| 1777797986 | 13.33° C | 75% | 1021.1 hPa | 0 mm | - | - | - |
| 1777797640 | 13.33° C | 75% | 1021 hPa | 0 mm | - | - | - |
| 1777797144 | 13.33° C | 74% | 1021 hPa | 0 mm | - | - | - |
| 1777796427 | 13.89° C | 74% | 1021 hPa | 0 mm | - | - | - |
| 1777794978 | 13.89° C | 74% | 1021.2 hPa | 0 mm | - | - | - |
| 1777794502 | 13.89° C | 73% | 1021.3 hPa | 0 mm | - | - | - |
| 1777794380 | 13.89° C | 73% | 1021.2 hPa | 0 mm | - | - | - |
| 1777793176 | 13.89° C | 74% | 1021.4 hPa | 0 mm | - | - | - |
| 1777792457 | 13.89° C | 75% | 1021.4 hPa | 0 mm | - | - | - |
| 1777791860 | 14.44° C | 73% | 1021.6 hPa | 0 mm | - | - | - |
| 1777791739 | 14.44° C | 73% | 1021.4 hPa | 0 mm | - | - | - |
| 1777791283 | 13.89° C | 74% | 1021.3 hPa | 0 mm | - | - | - |
| 1777791020 | 13.89° C | 75% | 1021.3 hPa | 0 mm | - | - | - |
* Rain latest hour (hover to see other rain measurements)
** Current wind speed in m/s (hover to see current wind gust speed)